Location: Arbon
(43.0005°N, 0.7472°E)
Time: 15:28:38
(UTC+00:00)

Courier 1B Rocket - Pass Details

Date: 04 December 2020
Orbit: 920 x 1202 km, 28.2° (Epoch: 21 January)

Event Time Altitude Azimuth Distance (km) Brightness Sun altitude
Rises 08:08:50 0° 255° (WSW) 4,096 7.9 7.6°
Reaches altitude 10° 08:13:08 10° 235° (SW) 3,119 7.5 8.2°
Maximum altitude 08:17:14 15° 202° (SSW) 2,713 7.7 8.8°
Drops below altitude 10° 08:21:17 10° 170° (S) 3,055 8.6 9.3°
Sets 08:25:25 0° 149° (SSE) 3,966 9.9 9.9°
